Погода в Атбасаре

Погода в Атбасаре : погода сейчас, прогноз погоды и архив. Всё, что Вы хотите узнать о погоде в Атбасаре!

Хотите узнать прогноз погоды в Атбасаре? Тогда Вам сюда: Погода в Атбасаре

Поиск расширенной информации на нашем сайте:

Другие новости

Новости СМИ2

Главная страница сайта

Новости сайта

03.07.2017

Напоминаем, что на нашем специализированном сайте Метеоцентр.Азия вы можете получить высокодетализированные автоматические прогнозы погоды по пунктам России, СНГ и мира в авиационном формате (включающие направление и скорость ветра, видимость, явления погоды, количество и форму облачности, нижнюю и верхнюю границу облачности).


Погода в Атбасаре - сегодня

Время (UTC), дата Ветер
(°,м/с) 
Видим.   Явления Облачность Т
(°С)
Тd
(°С)
f(%) Тe
(°С)
Pmin
(гПа)
dP
(гПа)
Po
(мм)
O2
(г/м3)
Тmin Tmax R s Состояние
почвы
12 20.10.17 270 (З) 20000 м    8/3 600 м верхняя 
[Frnb|Cs]
+7.8 +0.9 62 +6  1011.5  0.3  731  286           
15 20.10.17 250 (З) н/о    10/0 средняя 
[Ac As]
+6.2 +1.3 71 +4  1012.1  0.4  732  288    +9.5  0.0     
18 20.10.17 250 (З) н/о    10/0 средняя 
[Ac As]
+4.7 +1.7 81 +4  1011.7  -0.6  731  289    +9.5  0.0     
21 20.10.17 230 (ЮЗ) н/о    9/0 средняя 
[Ac trans]
+4 +1.5 84 +4  1011.4  -0.4  731  290           
00 21.10.17 230 (ЮЗ) н/о    9/0 средняя 
[Ac trans]
+3 +0.9 86 +2  1011.2  -0.3  731  291           
03 21.10.17 тихо ()   20000 м    9/9 300 м 
[St]
+0.1 -1.9 86 1011.9  0.3  731  295           
06 21.10.17 270 (З) 20000 м  {туман}  9/0 верхняя 
[Ci sp]
+5.4 -2.9 55 +3  1011.6  0.4  731  289  -1.2         
09 21.10.17 270 (З) 20000 м    9/8 600 м верхняя 
[Cu hum|Cs]
+6.6 -6.6 38 +4  1010.8  -0.6  731  288           
12 21.10.17 270 (З) 20000 м    9/8 1000 м верхняя 
[Sc|Ci]
+5.2 -4.3 50 +4  1010.8  -0.2  731  289           
15 21.10.17 290 (З) н/о    8/8 300 м 
[Frnb]
+2.7 -3.4 64 +1  1012  0.8  731  292    +7.4       
18 21.10.17 290 (З) н/о    6/6 600 м кучево-дожд. 
[Cb cap]
+1.2 -2.3 77 -1  1012.4  0.2  731  294    +7.4       
21 21.10.17 290 (З) н/о    ясно 
-3.5 -5.3 87 -5  1014.2  1.1  732  299           
00 22.10.17 290 (З) н/о    ясно 
-5.5 -6.6 92 -7  1015.9  1.3  733  302           
03 22.10.17 270 (З) 20000 м    3/3 1000 м 
[Sc]
-6.4 -8 88 -10  1017.8  1.7  734  304           
06 22.10.17 270 (З) 20000 м    4/0 средняя 
[Ac cast]
+0.8 -7.1 55 1018.6  1.8  736  296  -6.6         
09 22.10.17 270 (З) 20000 м    9/9 1000 м 
[Sc]
+1.7 -6.9 53 +1  1019  0.5  736  295           
12 22.10.17 270 (З) 20000 м    9/9 1000 м 
[Sc]
+0.9 -7.5 53 -1  1020.2  1.1  737  297           
15 22.10.17 тихо ()   н/о    10/10 1000 м 
[Sc]
-1.1 -6.5 67 -1  1021.4  0.8  737  299    +2.4       
18 22.10.17 200 (Ю) н/о    10/10 300 м 
[St]
-0.5 -5 72 -1  1021.6  0.3  738  298    +2.4       
21 22.10.17 180 (Ю) н/о    10/10 300 м 
[St]
-0.3 -5.1 70 -1  1021  -0.5  737  298           
00 23.10.17 тихо ()   н/о    10/10 1000 м 
[Sc]
-1 -3.8 81 -1  1020.5  -0.6  737  298           
03 23.10.17 180 (Ю) 20000 м    10/8 1000 м средняя 
[Sc|Ac As]
-0.6 -3.7 80 -1  1019.2  -1.2  736  298           
06 23.10.17 110 (В) 20000 м    10/4 1000 м средняя 
[Sc|Ac As]
+1.1 -5.2 63 -2  1016.2  -2.7  734  295  -1.4         
09 23.10.17 140 (ЮВ) 10 км  слаб. ливневой дождь  10/10 600 м кучево-дожд. 
[Cb cap]
+0.8 -0.9 88 -3  1011.7  -4.3  731  294           
12 23.10.17 140 (ЮВ) 4000 м  ливневой дождь  10/10 300 м кучево-дожд. 
[Cb cap]
+4 +2.5 90 +2  1008.2  -2.9  729  289           
Время (UTC), дата Ветер
(°,м/с) 
Видим.   Явления Облачность Т
(°С)
Тd
(°С)
f(%) Тe
(°С)
Pmin
(гПа)
dP
(гПа)
Po
(мм)
O2
(г/м3)
Тmin Tmax R s Состояние
почвы

Для получения пояснительной информации подведите курсор к названию столбца.

ПОГОДА в Атбасаре - архив

Всё, что Вы хотите узнать о погоде в Атбасаре - удобно и подробно!

Выберите нужную дату (начиная с 1 января 2015* года) и нажмите кнопку "Найти".
Будут отображены архивные сводки погоды по пункту Атбасар, начиная с указанной даты.


Отображать данные в формате CSV (для использования в таблицах Excel)


Внимание! Наш архив погоды предназначен исключительно для личного некоммерческого использования в познавательных целях. Если Вам необходимы официальные справки о состоянии погоды (для производственных, юридических, коммерческих и т.п. целей), обращайтесь в органы Росгидромета.

*Примечание: данная дата относится к архиву по метеостанциям СССР (Россия, СНГ, Балтия).
Архив по метеостанциям Зарубежной Европы и Азии (кроме Китая) хранится 10 дней, по другим регионам земного шара (Китай, Африка, Америка, Австралия, Океания) - 1 день.

Атбасар - район местоположения метеостанции


Название, широта, долгота, высота метеостанции:
Атбасар 51.8°ш. 68.4°д. 304 м над ур. моря [Казахстан]

Дополнительная информация

В oтличие oт бoльшинства пoгoдных сайтoв мы публикуем пoдрoбную метеoинфoрмацию в детальнoм прoфессиoнальнoм фoрмате.

Характеристики температуры и влажнoсти вoздуха измеряются на высoте 2 м в тени вдали oт зданий и деревьев.
Скoрoсть ветра измеряется на высoте 10 м (на урoвне рoста челoвека скoрoсть ветра ниже в 1.5-2 раза). Если метеoстанция нахoдится в гoрoде или в лесу, тo скoрoсть ветра занижена на 2-4 м/с пo сравнению с oткрытым местoм. Скoрoсть ветра над акватoриями крупных рек и oзёр, а также на вершинах хoлмoв на 2-5 м/с выше, чем в oбычных услoвиях.
Атмoсфернoе давление в разных тoчках местнoсти мoжет значительнo oтличаться oт давления на метеoстанции, в зависимoсти oт услoвий рельефа (при пoдъёме на 10 м давление пoнижается примернo на 1 мм рт.ст.).